Theta_e
323 317 316 309 297 294 290 294 296 299 298 300 302 300 298 300 298 296 316 322 334 338 344 347 350 352 353 353 353 352 352 351 350 349 349 348 347 346 346 346 347 345 342 340 338 337 336 333 332
314 318 310 302 292 288 289 294 297 299 300 301 301 300 299 298 307 311 315 324 334 339 343 346 347 351 353 353 352 351 351 351 350 350 349 347 344 342 343 343 344 344 341 338 334 333 330 328 329
316 316 303 297 291 288 289 294 295 299 300 300 299 301 300 302 307 313 319 325 329 338 341 345 346 351 352 352 351 351 351 351 352 350 348 344 341 340 339 337 340 341 338 334 331 328 326 326 325
310 307 301 292 290 293 292 293 297 298 299 300 299 297 302 307 309 315 323 325 324 336 340 343 347 351 351 350 350 350 350 352 351 350 346 344 341 336 335 335 337 337 334 331 327 325 323 322 321
307 300 292 291 291 293 295 299 298 298 298 299 300 297 299 308 314 319 323 324 321 327 336 343 346 349 350 350 350 350 350 351 350 349 347 343 339 337 333 335 337 335 332 327 326 323 322 321 320
300 297 290 288 291 295 296 300 298 298 299 299 297 296 299 307 308 316 322 322 322 325 337 342 340 343 346 348 349 349 349 350 349 349 347 345 341 337 332 333 333 332 329 326 325 323 320 319 318
299 294 290 291 292 295 297 298 296 295 296 298 299 296 300 303 307 313 319 321 322 325 334 338 341 341 339 342 344 345 347 347 348 347 344 342 338 335 333 332 331 329 326 327 324 322 319 317 316
300 296 290 290 291 293 298 298 299 297 297 301 301 295 298 304 310 311 314 318 320 323 326 332 335 338 339 339 337 339 341 343 344 341 338 334 332 332 331 328 330 326 325 326 323 321 318 315 312
302 291 289 291 292 294 298 297 300 300 297 298 302 300 303 307 310 310 311 312 316 321 325 327 331 334 336 336 336 333 336 337 336 335 330 326 326 328 325 323 327 326 327 325 323 320 317 312 308
297 291 292 296 293 295 297 295 295 295 296 296 297 300 306 306 306 308 309 310 312 316 321 326 327 330 333 338 336 334 335 333 332 330 326 324 324 324 321 319 324 326 326 325 322 319 315 308 296
298 293 297 299 300 299 299 298 298 295 294 297 297 299 301 305 305 305 306 309 311 315 319 324 326 327 329 332 329 333 334 330 326 325 323 323 323 321 320 314 316 315 317 313 313 310 304 301 297
294 299 300 301 301 299 298 299 298 298 299 301 300 301 300 300 301 303 304 305 306 312 318 322 325 326 326 328 328 330 329 327 325 324 322 321 320 318 315 311 311 310 308 307 304 301 298 296 296
294 296 299 300 299 298 299 297 298 297 302 303 303 303 300 300 300 300 304 304 305 305 314 319 322 324 326 325 324 327 328 327 325 325 324 320 319 315 312 310 310 308 306 305 302 299 296 295 295
296 296 297 298 298 298 297 296 296 298 299 300 300 299 298 299 300 300 301 302 302 305 307 316 321 322 323 323 323 323 324 325 324 323 324 323 320 315 311 309 309 309 306 304 301 297 295 294 294
297 293 295 296 296 296 297 293 295 299 298 298 298 297 299 300 301 300 302 302 300 303 305 313 318 319 320 320 322 321 322 321 320 320 320 320 318 314 313 308 307 308 305 303 298 295 294 293 293
292 290 287 294 295 296 294 288 296 297 297 297 298 296 298 299 299 299 300 299 301 302 303 307 316 317 317 318 319 321 320 318 318 319 319 318 318 314 310 307 306 306 303 300 296 294 292 292 291
288 283 286 291 297 294 292 288 296 298 297 296 295 296 297 297 297 297 298 298 298 299 301 303 308 313 315 315 317 318 318 317 316 317 316 318 317 313 309 308 305 304 301 297 295 292 291 290 290
285 284 288 288 294 294 292 291 294 296 296 295 294 294 294 293 293 295 296 296 297 297 298 300 301 304 308 310 311 312 313 313 314 314 315 315 316 315 308 304 303 302 298 295 293 292 291 290 289
288 287 286 290 295 291 291 290 293 297 294 293 294 293 292 292 294 294 294 294 294 295 296 296 298 299 301 304 305 306 307 308 310 311 312 312 311 311 308 303 301 300 297 296 293 291 290 289 289
290 287 286 290 293 291 290 289 293 292 291 293 291 291 291 291 291 292 292 292 292 292 293 294 295 296 298 300 299 301 302 301 302 303 307 309 308 308 306 303 300 298 295 293 292 291 289 289 288
289 288 287 288 289 290 286 286 289 291 292 292 291 291 291 290 290 290 290 290 291 291 290 292 293 295 295 296 298 298 298 298 298 298 299 301 306 305 305 303 300 297 295 293 291 291 290 288 288
287 292 291 289 284 281 286 278 285 288 288 289 289 288 288 289 290 291 290 290 290 290 291 291 292 293 294 294 294 293 292 292 294 295 296 298 300 303 303 302 300 298 295 293 291 292 291 289 287
289 291 289 287 284 282 283 280 283 288 286 286 287 288 289 290 290 289 289 290 290 289 289 289 290 291 292 292 292 291 290 291 292 292 292 293 295 297 300 300 299 297 295 292 291 290 289 289 290
291 288 287 285 283 278 284 282 283 285 287 286 288 289 289 288 288 288 289 290 289 289 288 289 289 289 290 291 291 290 289 290 289 290 289 291 292 293 294 295 297 297 296 293 291 290 289 290 290
288 284 279 277 276 278 285 283 286 288 289 289 288 286 286 286 286 286 287 287 288 287 287 289 288 287 288 288 289 289 289 288 288 288 288 288 288 289 290 291 291 293 295 295 292 290 289 289 290
286 286 278 270 275 277 284 280 284 288 289 288 287 286 286 285 286 286 287 287 287 287 287 287 287 287 287 287 287 287 288 288 287 287 287 286 286 288 290 289 290 290 291 293 293 290 289 289 289
287 284 288 281 277 273 281 284 288 288 286 285 284 285 284 284 285 285 285 286 286 285 286 286 287 286 286 285 286 286 286 286 285 284 283 284 285 286 286 287 287 288 288 289 290 290 289 288 288
287 288 281 280 268 268 278 279 281 284 284 284 284 284 284 284 284 283 284 284 284 284 284 285 285 285 285 285 285 286 286 287 286 284 282 282 282 283 283 284 285 285 286 286 286 286 287 286 288
284 283 283 284 280 274 272 277 286 287 285 284 285 285 284 283 282 283 283 283 284 283 283 283 283 284 284 284 283 284 284 284 285 284 284 283 281 282 282 282 283 283 284 284 284 284 285 285 286
288 285 285 281 275 281 279 280 288 287 287 286 286 285 284 283 282 282 283 283 283 283 282 282 283 282 284 283 284 283 283 282 282 282 282 281 281 281 281 282 282 282 282 282 282 283 283 284 285
Wind_Speed
6 8 1 5 6 6 4 2 3 5 3 0 0 3 4 3 2 4 3 7 11 13 13 13 15 17 15 14 15 15 14 14 14 13 12 12 12 8 8 7 11 11 7 7 6 7 7 7 7
4 5 5 2 5 4 5 2 3 4 3 1 1 0 1 1 3 4 4 7 11 13 12 12 14 16 16 16 15 14 14 13 14 14 14 14 11 7 6 6 8 10 8 6 5 6 5 6 6
4 0 4 4 3 2 2 2 2 1 4 2 2 0 2 2 3 8 4 8 10 10 12 10 13 16 16 15 15 15 14 13 14 14 11 12 9 8 6 2 2 8 5 4 4 4 4 6 5
3 5 5 4 3 4 3 1 2 2 1 2 2 4 4 2 3 6 8 7 8 9 11 13 12 14 15 15 15 14 13 13 13 14 14 13 12 6 5 3 3 6 5 4 4 4 5 5 5
4 3 3 1 5 3 4 4 2 0 3 3 4 3 4 3 5 7 8 7 8 8 7 12 15 14 13 13 14 14 13 13 13 13 14 15 13 11 6 6 8 7 7 5 5 5 5 5 5
4 3 4 1 5 5 3 5 2 1 3 3 2 1 1 1 3 6 8 7 7 8 8 11 15 14 14 14 14 13 12 11 13 14 15 14 12 11 7 8 8 8 7 7 6 6 5 4 5
2 4 3 3 5 6 2 0 3 2 5 4 1 1 1 2 2 5 7 6 7 7 8 8 10 12 13 13 14 13 13 12 11 13 15 12 10 8 8 7 7 7 7 8 7 7 5 5 5
4 4 4 4 3 5 5 2 3 2 4 2 1 2 3 5 7 6 5 6 6 6 8 8 7 8 8 7 12 13 12 11 11 13 12 9 10 5 7 4 6 7 8 8 7 7 6 5 5
3 5 3 4 5 6 6 5 5 2 2 2 5 5 7 7 7 5 3 1 3 3 7 8 8 8 8 7 7 10 12 11 11 12 12 9 5 6 6 6 7 8 9 9 8 7 6 4 3
5 4 6 3 1 4 4 2 3 4 8 7 4 5 5 3 3 7 6 8 6 6 6 7 8 8 8 8 7 6 6 5 5 6 7 5 7 6 5 6 9 9 9 9 9 8 7 5 1
4 5 4 7 5 3 6 9 5 5 6 10 10 6 4 7 8 9 9 9 11 10 5 8 8 8 9 7 4 4 4 4 4 7 6 6 5 5 5 3 3 3 6 3 4 4 2 2 2
3 8 7 5 5 5 6 3 8 6 13 10 11 8 5 7 9 11 10 9 7 9 12 10 10 9 8 5 6 6 5 5 5 6 8 5 4 5 5 4 5 5 4 6 5 3 4 4 4
5 5 3 7 9 7 6 6 8 8 17 12 14 13 11 9 9 8 10 9 10 9 10 10 9 9 8 7 5 6 6 6 6 6 7 5 4 5 5 5 4 4 4 4 5 5 4 4 3
3 3 6 7 12 7 7 7 3 9 6 11 8 9 7 8 8 7 9 9 8 9 9 10 10 9 8 6 6 5 4 5 5 5 6 8 5 5 5 5 5 5 5 5 5 5 5 4 3
3 5 8 10 7 8 7 6 9 12 8 10 9 7 8 14 16 15 15 14 8 4 4 9 10 9 8 7 6 5 5 5 4 5 6 7 6 6 7 5 4 4 5 6 4 4 3 3 3
4 1 4 6 1 3 3 6 8 7 7 10 11 9 8 18 17 17 16 17 17 15 10 4 4 7 8 6 4 4 4 3 4 4 5 6 6 7 6 5 4 4 4 4 4 4 3 4 4
2 3 5 8 3 2 3 6 10 10 10 10 7 7 15 15 18 17 18 18 18 17 18 14 9 5 5 6 5 3 4 3 3 4 4 6 6 6 6 6 5 6 4 3 4 1 2 3 3
4 3 4 4 6 6 7 10 8 12 10 10 5 14 15 15 15 15 18 18 18 18 18 18 14 13 8 5 5 4 4 3 2 3 4 6 5 7 6 4 5 5 4 5 4 5 3 2 2
3 5 5 6 8 4 7 7 10 17 4 7 15 15 14 14 12 15 17 18 18 19 19 18 18 15 11 5 4 4 3 3 3 3 1 3 3 5 5 4 4 4 5 6 7 4 6 4 4
4 4 6 4 2 4 7 12 12 12 10 17 14 13 11 12 15 16 16 17 17 16 16 18 17 17 13 8 4 4 3 3 4 4 6 5 0 3 5 6 5 5 4 5 5 5 3 3 6
3 5 4 5 3 5 4 8 7 8 15 16 14 12 12 13 12 13 15 13 13 16 15 15 15 14 14 12 9 7 5 4 6 6 5 6 6 0 3 4 4 4 4 5 6 6 7 6 5
5 7 7 4 3 4 4 5 2 8 11 11 9 10 10 10 11 11 11 13 13 11 10 13 14 15 14 14 10 11 6 5 4 4 4 8 9 6 3 2 3 4 3 4 5 5 5 4 6
7 2 3 2 3 2 5 3 6 9 4 6 5 8 8 9 10 10 9 9 9 8 9 8 12 14 13 13 13 9 10 6 5 7 9 9 9 10 8 5 2 3 3 4 6 5 6 5 5
2 1 3 2 4 1 6 7 4 7 10 7 7 8 9 9 8 9 7 7 8 8 7 9 12 13 12 11 12 13 12 10 9 10 9 8 7 7 10 12 7 6 4 5 5 7 7 8 8
3 4 3 4 1 6 1 2 6 3 9 12 13 10 8 8 7 7 8 8 8 10 10 10 12 13 12 12 12 11 10 9 9 8 7 9 9 8 11 10 10 8 8 7 5 6 7 8 8
5 7 6 6 2 4 8 6 5 10 16 15 12 8 7 7 6 7 6 6 6 7 7 7 8 9 9 10 10 8 8 6 5 6 6 5 5 6 8 9 9 9 9 9 7 4 6 6 8
4 4 3 2 2 3 5 2 4 8 12 12 10 8 7 6 5 6 6 6 7 7 7 7 7 7 7 7 6 6 6 6 5 6 4 3 4 6 9 9 8 8 8 8 8 6 8 7 7
3 3 1 3 0 4 4 5 5 9 11 10 8 7 6 6 6 6 5 6 5 5 4 5 4 4 3 5 6 5 6 7 6 6 7 6 5 5 6 6 7 9 8 8 7 6 7 7 7
1 1 2 3 5 6 3 6 2 14 13 10 8 10 10 8 7 6 5 4 5 3 3 2 2 2 2 1 2 3 4 5 5 5 6 6 7 8 9 9 7 7 7 7 7 8 9 8 10
3 5 6 4 4 4 1 9 4 14 12 12 10 8 7 8 7 6 6 5 4 3 2 4 3 0 2 2 3 4 4 5 5 6 6 7 7 6 8 10 11 11 9 8 7 9 9 10 11
Wind_Direction
317 292 139 34 49 63 297 301 83 37 44 134 108 101 203 223 201 207 240 182 134 152 160 159 162 158 154 149 146 147 150 154 154 153 152 127 115 99 87 90 102 100 95 85 75 76 72 59 48
315 320 42 74 84 67 286 126 117 142 171 129 292 42 351 304 106 122 125 200 142 149 158 161 163 163 159 156 154 155 158 159 159 158 143 112 114 126 104 75 112 118 99 97 87 83 84 77 57
311 96 72 99 123 161 177 27 114 122 149 135 358 237 218 150 116 157 225 161 126 147 155 161 164 166 164 162 161 161 165 172 170 160 148 143 139 140 131 72 139 108 112 117 103 106 96 80 69
17 10 15 87 237 271 122 88 104 41 80 114 128 310 309 348 124 157 152 146 127 149 156 155 166 171 167 165 166 168 173 174 174 161 148 152 163 161 164 192 173 153 161 147 142 121 100 88 84
32 63 43 343 278 250 84 99 66 10 281 193 152 278 308 32 118 126 143 150 148 148 154 160 166 172 173 173 172 175 181 181 174 157 153 163 149 145 166 177 177 171 163 159 137 115 96 89 88
8 90 40 288 294 302 73 123 87 304 285 200 144 45 263 117 126 173 149 163 162 153 151 165 170 172 174 176 177 181 185 176 171 169 165 169 157 150 177 179 174 167 167 156 141 127 114 109 89
93 69 237 289 285 332 96 55 85 320 359 342 281 166 352 247 216 168 164 169 165 166 148 162 171 179 180 179 178 180 182 185 186 181 162 170 151 171 173 192 177 177 176 162 152 138 139 117 89
101 93 304 282 302 275 186 136 142 79 277 291 70 250 250 210 169 153 156 181 193 177 161 168 173 176 182 182 182 178 182 184 189 161 159 168 125 148 155 185 178 184 183 161 157 155 148 130 103
59 58 262 258 21 306 354 16 342 352 331 318 228 191 230 144 133 128 152 217 212 200 194 166 173 182 183 179 185 183 182 182 172 168 164 155 131 149 161 176 185 193 182 172 167 168 152 128 111
102 128 232 185 119 316 283 117 305 12 327 284 299 307 92 137 181 176 195 209 209 214 206 196 172 177 178 193 189 186 183 178 173 168 164 166 144 146 165 189 191 194 168 175 178 173 156 135 123
188 198 226 298 325 347 300 324 345 10 280 264 264 254 228 196 211 215 222 215 209 205 192 191 188 173 174 186 170 184 187 170 171 169 168 176 153 156 160 180 181 165 148 149 166 147 130 204 235
204 234 232 256 303 310 284 294 300 220 247 251 269 258 270 237 231 231 227 221 214 205 207 194 187 177 178 177 170 170 171 170 176 174 172 167 158 156 153 175 170 165 160 159 157 163 200 237 202
212 244 298 308 293 260 281 258 258 262 272 275 277 280 281 273 267 240 227 229 222 213 205 200 179 182 180 174 164 170 173 177 174 170 180 162 167 159 152 175 167 169 166 167 174 183 196 207 198
292 310 281 273 263 258 231 272 174 276 287 310 293 297 304 299 289 318 304 257 224 216 196 182 184 182 169 173 167 166 162 166 169 166 178 168 163 158 161 170 182 179 180 177 174 181 185 190 177
320 326 309 259 268 229 146 299 226 254 299 303 307 316 328 16 47 33 24 32 8 314 255 172 175 166 164 165 163 157 174 159 164 174 173 166 166 168 164 176 185 192 183 174 166 181 166 173 187
321 12 312 286 116 316 65 257 280 262 293 295 311 342 1 44 39 25 20 25 16 20 19 42 127 151 142 149 152 151 152 149 161 168 170 179 172 167 161 171 195 190 173 164 168 169 179 194 191
297 233 222 317 10 131 164 237 254 279 273 285 313 348 73 47 33 29 23 22 21 22 24 26 37 87 120 121 132 142 148 130 158 152 157 178 178 168 166 175 190 173 166 160 167 168 152 185 207
222 246 304 287 303 330 295 264 258 268 284 279 287 94 73 58 38 30 33 28 27 25 27 33 34 24 44 52 54 60 47 38 88 149 162 173 176 174 165 175 185 169 161 166 170 164 181 175 199
269 240 242 255 279 328 286 289 292 275 291 296 89 83 77 66 51 42 36 34 32 32 31 28 33 20 28 18 32 46 59 23 8 7 69 159 175 191 175 177 184 173 181 189 184 156 182 202 151
236 273 278 287 314 350 301 299 300 41 64 84 84 76 73 65 51 45 38 35 34 32 31 32 30 29 24 25 12 33 45 39 60 10 11 345 183 197 191 178 193 188 164 185 189 172 156 184 181
263 228 215 235 303 285 314 297 113 69 69 73 70 83 77 69 63 49 42 35 35 36 27 31 31 33 34 28 26 26 25 27 18 12 7 349 340 253 211 216 201 199 189 199 198 185 176 194 221
243 227 191 222 87 217 95 278 252 107 73 64 68 69 75 71 63 59 50 42 37 27 32 37 35 30 30 32 45 51 52 38 349 356 350 3 1 346 4 314 272 248 211 217 213 212 208 149 203
232 109 197 196 187 29 285 132 269 125 103 115 109 90 79 78 80 69 55 50 44 38 33 29 41 40 35 38 42 41 40 29 12 17 15 8 3 1 342 337 319 275 253 240 226 224 217 199 209
122 0 306 76 123 279 240 161 253 183 173 160 145 115 92 75 65 69 60 53 44 33 42 42 37 33 29 34 40 45 40 30 27 20 18 11 7 4 11 357 339 311 284 252 235 233 225 219 228
87 66 324 355 22 220 246 269 244 325 134 127 117 102 89 81 65 62 59 52 51 39 32 38 38 36 25 24 28 32 32 30 34 23 16 10 0 358 357 356 348 339 314 287 255 239 232 224 224
177 166 158 221 217 250 346 271 351 65 88 93 90 90 83 75 78 72 69 67 62 57 56 52 47 39 25 21 17 19 33 29 15 18 16 11 3 340 345 345 340 334 334 322 292 261 246 231 232
194 167 181 121 84 49 221 115 72 94 95 102 109 105 104 96 88 86 73 67 62 47 51 55 47 32 27 14 10 12 10 21 16 6 357 347 340 344 343 336 333 328 325 324 320 296 276 253 237
147 169 61 8 210 260 275 244 188 170 139 132 140 136 130 125 113 103 92 83 76 67 60 64 72 82 49 15 9 348 350 353 356 352 344 339 334 328 323 315 319 321 323 322 322 306 291 273 265
75 183 153 143 146 186 260 255 237 160 150 153 162 170 168 158 146 133 120 106 98 86 77 95 98 170 130 153 339 319 327 325 325 307 296 322 328 328 327 322 310 300 304 310 316 310 296 285 279
191 221 173 169 235 248 241 266 91 136 161 168 180 168 164 154 152 151 150 145 154 164 192 198 204 193 236 238 279 287 282 285 276 280 269 260 263 290 301 307 312 309 313 312 302 297 294 285 281